الصفحة الرئيسية
METAR-TAF:

METAR-TAF

مطار :

سانت فرنسيس, كانساس, الولايات المتحدة

دائرة عرض: 39-45-40N, خط طول: 101-47-45W, ارتفاع: 1040 متر

مراقبة الطقس الحالي

تاريخ ووقت الإصدار 24 دقيقة قبل الساعة 22:55UTC
ريح 8 عقدة من الشمال الغربي
درجة الحرارة 9°درجة مئوية
الرطوبة 29%
ضغط 1026 hPa
الرؤية: 16.1 كم
سماء صافية

METAR: KSYF 152255Z AUTO 31008KT 10SM CLR 09/M08 A3030 RMK AO2 T00901082

زمن: 18:19 (23:19 UTC)


TAF: مفقودة

أرصاد الطقس والتوقعات من أكثر من 4000 مطار (تقارير الطقس للمطار METAR والتنبؤ بالطقس بالمطارTAF).

المحطات المتاحة هي النقط الصفراء والحمراء على الخريطة.

حرك المؤشر فوق النقطة لمعرفة اسم المحطة.

ثم انقر لمعرفة أرصاد وتوقعات الطقس.

لتغيير الخارطة: اضغط على الأزرار الخضراء مع رمز الصليب الأسود للتكبير. على الزر الأخضر مع شرطة للتصغير، أو على الأسهم الخضراء للخرائط المجاورة.


METAR-TAF: